Regional Weather Roundup
Issued by NWS

Home | Current Version | Previous Version | Text Only | Print | Product List | Glossary On
Versions: 1 2 3 4 5 6 7 8 9 10 11 12 13 14 15 16 17 18 19 20 21 22 23 24 25 26 27 28 29 30 31 32 33 34 35 36 37 38 39 40 41 42 43 44 45 46 47 48 49 50
000
ASUS43 KDTX 192201
RWRMI
MICHIGAN HOURLY REGIONAL WEATHER ROUNDUP
NATIONAL WEATHER SERVICE DETROIT/PONTIAC MI
600 PM EDT SAT APR 19 2014

NOTE: "FAIR" INDICATES FEW OR NO CLOUDS BELOW 12,000 FEET WITH NO
SIGNIFICANT WEATHER AND/OR OBSTRUCTION TO VISIBILITY.

MIZ047>049-052>055-059>063-066>070-074>076-081>083-192300-
SOUTHEAST LOWER MICHIGAN

CITY           SKY/WX    TMP DP  RH WIND       PRES   REMARKS
ADRIAN         SUNNY     54  27  35 E13G21    30.34F
ALMA           SUNNY     57  26  31 E12       30.34S
ANN ARBOR      SUNNY     55  28  35 SE12      30.35F
BAD AXE        MOSUNNY   46  28  49 SE9       30.40S
CARO           SUNNY     54  26  34 E10       30.37S
DETROIT CITY   SUNNY     56  28  34 SE10      30.37F
DETROIT        MOSUNNY   52  30  43 SE9       30.37F
FLINT          SUNNY     58  28  32 E12       30.34F
GROSSE ILE     SUNNY     46  34  61 S10       30.36F
HILLSDALE      SUNNY     56  30  36 SE8G16    30.32S
HOWELL         SUNNY     56  26  31 SE8       30.33F

CITY           SKY/WX    TMP DP  RH WIND       PRES   REMARKS
JACKSON        SUNNY     57  24  28 SE12      30.31F
LAMBERTVILLE   SUNNY     50  28  43 E10       30.36F
LANSING        SUNNY     59  21  23 S12       30.32F
LAPEER         FAIR      53  25  33 E6        30.37S
MASON          SUNNY     59  25  26 SE9       30.32F
MONROE         SUNNY     48  28  46 E10       30.36F
MT. CLEMENS    MOSUNNY   54  35  47 E6        30.35F
PONTIAC        MOSUNNY   55  23  28 E9        30.35F
PORT HOPE        N/A     38  31  76 E6        30.41F WCI  33
PORT HURON     SUNNY     48  34  57 NE9       30.39F
TRI CITIES     MOSUNNY   50  35  56 NE16      30.37F
TROY           SUNNY     55  27  34 CALM      30.36F
SAGINAW HB     SUNNY     55  28  35 E8        30.36S
YPSILANTI      SUNNY     57  31  37 E13       30.36F
$$
MIZ043>046-050>051-056>058-064>065-071>073-077>080-192300-
SOUTHWEST LOWER MICHIGAN

CITY           SKY/WX    TMP DP  RH WIND       PRES   REMARKS
BATTLE CREEK   SUNNY     61  27  27 SE10      30.30F
BENTON HARBOR  MOSUNNY   63  35  35 S10       30.27F
BIG RAPIDS     MOSUNNY   56  29  35 SE13      30.31F
COLDWATER      SUNNY     57  28  32 E13       30.31F
FREMONT        FAIR      59  24  26 SE10G16   30.29F
HOLLAND        MOSUNNY   64  28  25 SE6       30.29F
GRAND RAPIDS   PTSUNNY   62  28  27 SE10      30.30F
IONIA          FAIR      59  24  25 SE13      30.31S
KALAMAZOO      SUNNY     62  28  27 SE8       30.29F
LUDINGTON      MOSUNNY   49  32  51 W7        30.29F
MARSHALL       SUNNY     59  26  28 SE6       30.30F
MOUNT PLEASANT MOSUNNY   55  35  46 NE9       30.34S
MUSKEGON       PTSUNNY   62  27  26 SE6       30.28F
SOUTH HAVEN    MOSUNNY   63  29  27 S3        30.27F
$$
MIZ016>042-192300-
NORTHERN LOWER MICHIGAN

CITY           SKY/WX    TMP DP  RH WIND       PRES   REMARKS
ALPENA         PTSUNNY   41  28  60 SE10      30.40F
BEAVER ISLAND  MOSUNNY   44  30  56 E12       30.30F
BELLAIRE       MOSUNNY   60  24  25 S9G18     30.28F
CADILLAC       PTSUNNY   54  29  38 SE10G17   30.29F
CHARLEVOIX     MOSUNNY   49  29  46 N5        30.30F
FRANKFORT      PTSUNNY   51  27  39 W7        30.28F
GAYLORD        MOSUNNY   54  24  31 S15       30.29F
GRAYLING       MOSUNNY   53  22  30 SE13      30.33S
HARBOR SPRINGS MOSUNNY   57  30  35 E6        30.28F
HOUGHTON LAKE  MOSUNNY   51  23  33 SE10G21   30.34F
MANISTEE       PTSUNNY   48  25  40 W10       30.30S
OSCODA         PTSUNNY   41  30  64 E6        30.41F
PELLSTON       MOSUNNY   53  29  39 E9        30.31F
ROGERS CITY    PTSUNNY   45  31  58 E13       30.38F
TRAVERSE CITY  CLOUDY    59  23  25 SE9       30.27F
$$
MIZ007>008-015-192300-
EASTERN UPPER MICHIGAN

CITY           SKY/WX    TMP DP  RH WIND       PRES   REMARKS
KINROSS        CLOUDY    41  21  45 SE16      30.35F
MACKINAC ISLAN PTSUNNY   35  30  79 E13G24    30.34F WCI  27
NEWBERRY       MOSUNNY   43  27  53 SE16G23   30.28F
S. S. MARIE    CLOUDY    42  23  46 SE15      30.36F
$$
MIZ004>006-011>014-085-192300-
CENTRAL UPPER MICHIGAN

CITY           SKY/WX    TMP DP  RH WIND       PRES   REMARKS
MANISTIQUE     PTSUNNY   40  29  65 SE9G18    30.28F WCI  34
ESCANABA       MOSUNNY   41  30  65 SE12      30.27F
MENOMINEE      MOSUNNY   48  30  49 S14G20    30.25F
SAWYER-GWINN   SUNNY     45  23  42 S18G28    30.19F
$$
MIZ001>003-009>011-084-192300-
WESTERN UPPER MICHIGAN

CITY           SKY/WX    TMP DP  RH WIND       PRES   REMARKS
IRON MOUNTAIN  SUNNY     50  25  37 SE15G28   30.16F
HOUGHTON       LGT RAIN  37  28  70 E9        30.07F WCI  30
COPPER HARBOR    N/A     39  28  64 S15G30    30.10F WCI  31
IRONWOOD       CLOUDY    46  36  66 S6        30.02R
$$

ABBREVIATIONS USED IN REMARKS
   TC - TEMPERATURE IN CELSIUS
  WCI - WIND CHILL INDEX
   HX - HEAT INDEX
  VSB - VISIBILITY




USA.gov is the U.S. government's official web portal to all federal, state and local government web resources and services.